This demonstration page uses our WeatherBlox Daily Observations layout. Learn more.

Left ArrowRight Arrow

Hourly Observations for June 12, 2019

Temp ( °F °C ) Dew Point ( °F °C ) Humidity (%) Winds ( mph kmh ) Pressure ( in mb ) Visibility ( mi km ) Precip ( " mm )
12:53 am 00:53 Clear 56 13.3 53 11.7 90 90 N N/A 30.12 1020 10 16 N/A
1:53 am 01:53 Clear 55 12.8 52 11.1 90 90 N N/A 30.10 1019 10 16 N/A
2:53 am 02:53 Clear 53 11.7 51 10.6 93 93 N N/A 30.09 1019 10 16 N/A
3:53 am 03:53 Clear 53 11.7 50 10 89 89 N N/A 30.08 1019 10 16 N/A
4:53 am 04:53 Clear 52 11.1 50 10 93 93 N N/A 30.07 1018 10 16 N/A
5:53 am 05:53 Clear 51 10.6 49 9.4 92 92 N N/A 30.07 1018 10 16 N/A
6:53 am 06:53 Sunny 53 11.7 52 11.1 96 96 N N/A 30.06 1018 10 16 N/A
7:53 am 07:53 Sunny 58 14.4 56 13.3 93 93 N N/A 30.05 1018 10 16 N/A
8:53 am 08:53 Sunny 65 18.3 54 12.2 68 68 E 3 6 30.03 1017 10 16 N/A
9:53 am 09:53 Sunny 71 21.7 54 12.2 55 55 E 9 15 29.99 1016 10 16 N/A
10:53 am 10:53 Sunny 72 22.2 53 11.7 52 52 E 8 13 29.97 1015 10 16 N/A
11:53 am 11:53 Sunny 74 23.3 53 11.7 48 48 E 6 9 29.94 1014 10 16 N/A
12:53 pm 12:53 Sunny 76 24.4 54 12.2 47 47 VRB 3 6 29.92 1013 10 16 N/A
1:53 pm 13:53 Sunny 75 23.9 55 12.8 50 50 SSE 8 13 29.91 1013 10 16 N/A
2:53 pm 14:53 Sunny 76 24.4 57 13.9 52 52 VRB 5 7 29.88 1012 10 16 N/A
3:53 pm 15:53 Partly Cloudy 77 25 59 15 54 54 SSW 8 13 29.86 1011 10 16 N/A
4:53 pm 16:53 Mostly Cloudy 76 24.4 60 15.6 58 58 SSW 8 13 29.84 1010 10 16 N/A
5:53 pm 17:53 Mostly Cloudy 74 23.3 60 15.6 62 62 VRB 6 9 29.83 1010 10 16 N/A
6:53 pm 18:53 Cloudy with Light Rain 70 21.1 61 16.1 73 73 S 6 9 29.82 1010 10 16 N/A
7:23 pm 19:23 Cloudy with Rain 66 18.9 63 17.2 90 90 SSW 7 11 29.83 1010 3 4 0.05 1.27
7:32 pm 19:32 Cloudy with Light Rain 66 18.9 63 17.2 90 90 SSW 9 15 29.82 1010 4 6 0.06 1.52
7:53 pm 19:53 Cloudy with Light Rain 65 18.3 62 16.7 90 90 SSW 6 9 29.82 1010 8 13 0.07 1.78
8:53 pm 20:53 Mostly Cloudy 65 18.3 62 16.7 90 90 VRB 3 6 29.80 1009 10 16 N/A
9:40 pm 21:40 Mostly Clear 66 18.9 64 17.8 93 93 VRB 3 6 29.79 1009 10 16 N/A
9:53 pm 21:53 Partly Cloudy 66 18.9 63 17.2 90 90 SSE 5 7 29.79 1009 10 16 N/A
10:02 pm 22:02 Mostly Cloudy 65 18.3 63 17.2 93 93 VRB 3 6 29.80 1009 10 16 N/A
10:23 pm 22:23 Partly Cloudy 65 18.3 63 17.2 93 93 undefined N/A 29.80 1009 10 16 N/A
10:53 pm 22:53 Mostly Clear 65 18.3 62 16.7 90 90 N N/A 29.80 1009 10 16 N/A
11:53 pm 23:53 Mostly Cloudy 65 18.3 62 16.7 90 90 S 5 7 29.79 1009 10 16 N/A

Powered by AerisWeather